SCP
0 0 0 0 0 0 0 0 0 0 0 0 0 0 0 0 0 0 0 0 0 0 0 0 0 0 0 0 0 0 0 0 0 0 0 0 0 0 0 0 0 -0 -0
0 0 0 0 0 0 0 0 0 0 0 0 0 0 0 0 0 0 0 0 0 0 0 0 0 0 0 0 0 0 0 0 0 0 0 0 0 0 0 0 0 -0 -0
0 0 0 0 0 0 0 0 0 0 0 0 0 0 0 0 0 0 0 0 0 0 0 0 0 0 0 0 0 0 0 0 0 0 0 0 0 0 0 0 0 -0 -0
0 0 0 0 0 0 0 0 0 0 0 0 0 0 0 0 0 0 0 0 0 0 0 0 0 0 0 0 0 0 0 0 0 0 0 0 0 0 0 0 0 0 -0
0 0 0 0 0 0 0 0 0 0 0 0 0 0 0 0 0 0 0 0 0 0 0 0 0 0 0 0 0 0 0 0 0 0 0 0 0 0 0 0 0 0 0
0 0 0 0 0 0 0 0 0 0 0 0 0 0 0 0 0 0 0 0 0 0 0 0 0 0 0 0 0 0 0 0 0 0 0 0 0 0 0 0 0 0 0
0 0 0 0 0 0 0 0 0 0 0 0 0 0 0 0 0 0 0 0 0 0 0 0 0 0 0 0 0 0 0 0 0 0 0 0 0 0 0 0 0 0 0
0 0 0 0 0 0 0 0 0 0 0 0 0 0 0 0 0 0 0 0 0 0 0 0 0 0 0 0 0 0 0 0 0 0 0 0 0 0 0 0 0 0 0
0 0 0 0 0 0 0 0 0 0 0 0 0 0 0 0 0 0 0 0 0 0 0 0 0 0 0 0 0 0 0 0 0 0 0 0 0 0 0 0 0 0 0
0 0 0 0 0 0 0 0 0 0 0 0 0 0 0 0 0 0 0 0 0 0 0 0 0 0 0 0 0 0 0 0 0 0 0 0 0 0 0 0 0 0 0
0 0 0 0 0 0 0 0 0 0 0 0 0 0 0 0 0 0 0 0 0 0 0 0 0 0 0 0 0 0 0 0 0 0 0 0 0 0 0 0 0 0 0
0 0 0 0 0 0 0 0 0 0 0 0 0 0 0 0 0 0 0 0 0 0 0 0 0 0 0 0 0 0 0 0 0 0 0 0 0 0 0 0 0 0 0
0 0 0 0 0 0 0 0 0 0 0 0 0 0 -0 -0 0 0 0 0 0 0 0 0 0 0 0 0 0 0 0 0 0 0 0 0 0 0 0 0 0 0 0
0 0 0 0 0 0 0 0 0 0 0 0 0 0 -0 -0 0 0 0 0 0 0 0 0 0 0 0 0 0 0 0 0 0 0 0 0 0 0 0 0 0 0 0
0 0 0 0 0 0 0 0 0 0 0 0 0 0 0 0 0 0 0 0 0 0 0 0 0 0 0 0 0 0 0 0 0 0 0 0 0 0 0 0 0 0 0
0 0 0 0 0 0 0 0 0 0 0 0 0 0 0 0 0 0 0 0 0 0 0 0 0 0 0 0 0 0 0 0 0 0 0 0 0 0 0 0 0 0 0
0 0 0 0 0 0 0 0 0 0 0 0 0 0 0 0 0 0 0 0 -0 0 0 0 0 0 0 0 0 0 0 0 0 0 0 0 0 0 0 0 0 0 0
0 0 0 0 0 0 -0 -0 0 0 0 0 0 0 0 0 0 0 0 0 0 0 0 0 0 0 0 0 0 0 0 0 0 0 0 0 0 0 0 0 0 0 0
0 0 0 0 0 0 0 0 0 0 0 0 0 0 0 0 0 0 0 0 0 0 0 0 0 0 0 0 0 0 0 0 0 0 0 0 0 0 0 0 0 0 0
0 0 0 -0 0 0 0 0 0 0 0 0 0 0 0 0 0 0 0 0 0 0 0 0 0 0 0 0 0 0 0 0 0 0 0 0 0 0 0 0 0 0 0
0 0 0 -0 -0 0 0 0 0 0 0 0 0 0 0 0 0 0 0 0 0 0 0 0 0 0 0 0 0 0 0 0 0 0 0 0 0 0 0 0 0 0 0
0 0 0 -0 -0 0 0 0 0 0 0 0 0 0 0 0 0 0 0 0 0 0 0 0 0 0 0 0 0 0 0 0 0 0 0 0 0 0 0 0 0 0 0
0 0 0 0 0 0 0 0 0 0 0 0 0 0 0 0 0 0 0 0 0 0 0 0 0 0 0 0 0 0 0 0 0 0 0 0 0 0 0 0 0 0 0
0 0 0 0 0 0 0 0 0 0 0 0 0 0 0 0 0 0 0 0 0 0 0 0 0 0 0 0 0 0 0 0 0 0 0 0 0 0 0 0 0 0 0
0 0 0 0 0 0 0 0 0 0 0 0 0 0 0 0 0 0 0 0 0 0 0 0 0 0 0 0 0 0 0 0 0 0 0 0 0 0 0 0 0 0 0
0 0 0 0 0 0 0 0 0 0 0 0 0 0 0 0 0 0 0 0 0 0 0 0 0 0 0 0 0 0 0 0 0 0 0 0 0 0 0 0 0 0 0
Wind_Speed
4 2 1 0 1 1 1 2 2 3 3 2 2 2 1 1 1 1 1 2 3 3 3 3 4 4 3 4 5 4 4 3 3 4 3 3 3 2 1 2 3 3 3
2 1 1 0 1 1 1 2 2 3 3 3 2 1 2 1 1 1 1 2 3 3 3 3 3 3 3 4 5 5 3 2 2 4 4 2 1 1 1 1 2 2 2
3 2 2 2 2 2 2 2 2 3 3 4 4 3 3 2 1 1 1 1 2 3 3 4 4 3 3 4 4 5 4 3 1 2 4 4 4 1 1 0 1 2 2
2 2 2 2 2 2 2 2 3 3 4 5 5 5 3 2 1 1 1 1 2 2 2 3 3 4 3 3 4 3 3 4 3 1 1 2 4 4 2 1 0 1 2
2 2 2 2 2 1 2 2 3 2 3 4 5 5 3 2 2 2 2 2 1 2 2 3 3 3 3 3 3 3 3 2 3 3 2 2 2 2 3 2 1 1 1
1 1 1 1 1 1 2 2 3 2 3 4 4 5 5 4 4 3 2 1 1 1 1 2 2 3 3 3 3 3 4 3 2 2 2 3 3 3 3 3 2 2 1
1 1 1 1 2 2 2 2 3 2 3 3 3 4 5 5 5 4 3 3 2 1 2 2 2 2 2 3 3 3 3 3 3 3 1 2 2 3 3 3 3 2 1
2 2 2 2 2 3 3 3 3 2 2 3 3 3 4 3 3 3 3 3 2 2 3 3 2 2 3 3 3 2 2 2 2 2 2 1 2 2 3 4 4 2 0
2 2 2 2 2 3 4 4 4 3 2 2 2 2 3 3 3 3 2 2 2 2 3 3 3 2 2 3 3 3 2 2 2 2 2 1 1 1 2 3 4 5 3
2 2 2 2 2 2 2 3 4 4 3 3 2 2 2 3 3 3 3 3 3 3 4 3 3 3 2 3 3 3 3 3 3 2 3 2 2 2 2 2 2 3 4
3 2 2 2 2 1 2 3 3 3 3 3 2 2 2 2 3 3 4 4 3 4 4 3 3 3 3 3 3 3 4 4 3 3 3 3 2 2 2 2 2 2 3
3 2 2 2 2 2 2 2 2 3 3 3 2 2 2 2 3 3 3 3 4 3 4 4 4 4 3 3 4 4 5 5 5 4 3 3 2 3 3 2 3 2 2
2 2 2 2 2 2 2 2 2 2 2 3 3 2 2 3 3 4 4 4 3 3 3 3 4 4 4 4 4 4 5 5 5 5 5 4 4 4 3 3 3 2 2
2 2 2 2 2 2 2 2 2 2 2 2 2 3 3 3 3 3 4 4 4 4 3 3 4 4 4 4 4 4 4 4 4 4 4 5 5 5 5 4 4 3 3
2 2 3 2 2 1 1 2 2 2 2 2 2 2 2 2 2 3 3 4 4 4 4 3 3 3 3 4 5 4 5 4 4 4 4 5 6 7 6 4 4 5 3
3 3 3 2 2 2 2 2 2 2 2 2 1 1 1 1 1 1 2 3 3 3 3 3 4 4 4 6 8 6 5 5 5 5 4 4 5 7 8 8 8 8 6
3 3 3 3 3 3 3 2 2 2 2 1 1 1 1 1 1 1 1 2 2 3 3 3 4 5 5 7 8 8 5 5 5 5 4 3 4 5 4 6 7 8 10
3 3 2 2 2 2 1 1 1 2 2 1 1 1 1 1 1 1 1 1 1 2 2 3 3 3 4 6 7 8 5 4 4 5 5 5 4 5 5 5 4 4 5
3 3 2 2 2 1 2 2 1 1 1 1 1 1 1 1 1 1 1 1 1 1 2 2 2 3 3 5 6 6 3 3 4 4 5 5 5 7 8 5 5 4 4
1 1 1 2 2 1 2 2 1 1 1 1 1 1 1 1 1 2 1 1 1 1 1 1 2 2 3 4 5 5 2 3 3 2 3 6 6 7 8 5 5 5 5
2 2 2 2 1 1 2 2 1 0 1 1 1 1 0 1 1 1 1 1 1 1 1 1 1 2 3 4 5 5 2 3 3 2 2 3 7 8 8 7 5 7 4
3 3 3 2 1 2 3 2 1 1 1 1 1 1 1 1 1 0 1 1 0 1 1 1 2 2 2 3 4 5 5 4 3 3 3 3 6 7 8 6 6 7 4
2 2 3 2 2 2 2 2 1 1 1 1 1 1 2 1 1 1 1 1 1 0 1 1 2 2 2 2 5 5 5 6 4 3 5 5 6 6 5 6 6 4 2
2 2 3 3 2 2 2 1 0 1 1 1 1 1 2 2 2 1 1 1 1 1 1 1 2 2 2 2 2 2 3 4 4 3 4 5 4 3 3 3 3 2 3
2 2 2 2 1 2 2 2 1 1 1 1 1 1 1 1 2 2 1 1 2 2 2 2 2 2 3 4 5 3 3 2 3 2 1 1 1 1 2 2 2 2 2
2 3 2 2 2 2 2 2 2 1 1 1 2 1 1 1 1 2 3 4 3 4 5 5 4 4 5 6 6 6 6 6 5 2 2 2 2 3 3 3 2 2 3
Wind_Direction
275 268 262 144 97 79 122 134 137 134 126 122 120 121 129 116 97 100 114 128 128 132 134 136 141 136 140 148 140 127 128 127 127 105 84 44 48 70 97 121 124 123 115
295 285 277 157 190 186 158 148 150 140 137 138 123 121 118 108 78 43 66 111 127 134 138 138 140 136 129 133 138 133 128 131 136 128 124 108 33 7 54 116 139 141 123
245 240 217 209 190 183 178 170 156 136 134 128 113 100 80 68 64 55 52 62 113 129 135 143 141 140 139 151 150 146 138 149 155 140 145 153 184 184 326 231 153 154 143
236 227 209 202 201 196 179 163 150 142 138 135 136 137 139 146 164 158 109 64 92 114 121 133 136 139 137 151 162 148 141 147 159 167 144 141 145 149 159 294 280 185 175
216 215 207 201 195 167 159 158 147 153 145 145 149 147 143 138 122 112 105 94 91 117 124 126 133 140 143 150 153 136 142 142 157 169 159 122 97 117 144 178 216 265 231
218 218 218 160 134 131 139 133 139 147 149 150 152 152 153 147 143 142 134 132 135 115 123 131 139 142 145 156 159 149 154 153 142 151 166 159 159 166 153 162 179 208 246
197 190 198 171 157 155 151 140 145 151 153 154 161 168 167 163 169 169 164 162 171 173 183 165 164 155 155 159 152 147 157 160 159 160 169 179 179 158 148 142 155 174 250
205 198 199 180 179 176 165 160 162 164 160 163 170 168 169 168 173 173 169 180 189 183 179 170 174 171 159 161 150 144 159 159 160 162 153 158 185 163 155 152 148 145 219
213 198 192 184 187 184 180 171 169 167 170 178 175 168 171 168 176 175 168 182 195 175 173 167 170 173 168 167 159 160 167 159 164 170 164 167 166 153 155 151 154 154 175
233 196 184 192 200 190 182 167 172 176 179 179 182 181 181 180 181 175 177 189 197 182 168 167 168 173 178 175 169 170 173 166 179 177 169 174 174 150 149 155 154 151 160
231 213 200 195 184 157 162 165 170 171 176 181 181 182 190 184 182 190 193 192 194 182 170 171 175 182 188 186 182 186 179 181 188 184 178 191 176 166 164 154 149 148 147
220 210 198 177 168 169 171 176 182 182 189 185 176 189 196 193 195 200 195 188 189 184 176 174 180 190 195 192 189 191 191 191 195 196 186 197 181 183 178 169 171 172 166
209 194 187 182 185 188 190 191 194 195 195 184 183 196 204 205 208 204 194 185 187 183 179 180 190 195 196 194 198 196 197 199 199 195 194 198 186 196 192 186 186 183 176
199 190 198 202 203 204 201 194 203 200 188 177 185 201 212 215 216 206 193 188 185 186 191 194 200 201 201 202 201 196 197 202 204 202 202 201 199 201 193 192 193 181 178
210 202 205 201 199 212 220 201 201 197 181 168 196 218 238 225 201 200 197 191 186 192 191 193 204 203 203 208 205 200 196 197 201 206 210 212 211 207 199 196 191 183 185
219 209 199 193 198 208 217 209 205 197 175 180 227 260 280 284 255 219 194 185 189 191 190 201 208 210 220 219 214 208 198 197 198 205 213 215 215 217 219 218 208 194 191
211 209 205 203 209 211 207 202 197 178 169 184 223 242 254 278 279 267 177 191 198 193 204 213 213 218 225 221 217 214 203 198 201 203 206 219 223 216 211 225 224 221 222
199 205 205 202 204 198 191 178 165 159 162 177 219 237 245 267 280 263 220 229 220 208 217 225 224 225 234 227 222 220 212 204 207 207 206 210 218 214 205 203 210 220 228
194 197 196 183 168 171 172 143 130 135 153 197 229 245 228 234 250 254 251 258 242 245 237 231 221 230 251 240 233 225 204 208 217 215 210 209 214 224 217 203 210 227 241
122 142 138 128 136 156 141 134 138 136 215 249 260 271 247 226 240 247 253 261 234 244 246 253 240 234 248 251 244 230 209 210 220 220 222 226 225 228 222 206 205 223 234
81 91 99 103 123 123 112 114 108 200 269 312 359 357 296 251 250 260 271 252 243 224 228 254 270 255 254 264 256 242 219 209 212 221 229 237 239 236 231 220 214 229 227
75 86 91 73 58 89 102 93 56 329 22 51 38 2 344 334 350 340 323 307 226 243 271 286 297 286 272 265 263 252 241 230 214 227 230 234 239 238 235 228 229 240 234
87 91 98 79 51 68 100 99 345 16 56 61 40 8 5 2 1 356 343 344 328 273 278 279 286 292 280 266 261 259 254 248 232 229 232 239 240 239 236 232 231 230 205
81 90 94 85 47 32 54 80 26 43 72 58 24 23 25 10 8 0 352 344 314 293 275 267 272 283 288 277 267 266 267 265 254 240 238 245 243 235 235 236 231 211 201
69 82 90 86 47 29 28 17 21 69 71 54 36 23 19 11 4 357 338 314 284 262 272 273 264 273 281 272 262 255 246 235 234 224 210 211 219 218 218 211 209 201 201
73 71 67 62 37 31 19 3 5 48 72 43 23 8 360 0 356 351 351 348 328 317 308 297 285 280 277 286 280 271 264 254 238 222 213 218 220 224 221 216 215 212 214